| time (UTC) | temp F | wind direction | speed MPH | gust MPH | rain 1hr in | rain 24hr in | rain mn in | humidity % | barometer mb |
| 20260906021605 | 48 | 280 | 7.0 | 0.0 | 0.00 | 0.00 | 0.00 | 81 | |
| 20260906011905 | 50 | 280 | 7.0 | 0.0 | 0.00 | 0.00 | 0.00 | 76 | |
| 20260906001605 | 52 | 290 | 5.0 | 0.0 | 0.00 | 0.00 | 0.00 | 71 | |
| 20260905231605 | 52 | 280 | 9.0 | 0.0 | 0.00 | 0.00 | 0.00 | 71 | |
| 20260905222025 | 52 | 280 | 7.0 | 0.0 | 0.00 | 0.00 | 0.00 | 71 | |
| 20260905211605 | 54 | 280 | 9.0 | 0.0 | 0.00 | 0.00 | 0.00 | 66 | |
| 20260905201605 | 55 | 290 | 7.0 | 0.0 | 0.00 | 0.00 | 0.00 | 62 | |
| 20260905191905 | 57 | 290 | 5.0 | 0.0 | 0.00 | 0.00 | 0.00 | 58 | |
| 20260905181605 | 59 | 290 | 5.0 | 0.0 | 0.00 | 0.00 | 0.00 | 54 | |
| 20260905171628 | 63 | 280 | 14.0 | 0.0 | 0.00 | 0.00 | 0.00 | 48 | |
| 20260905162025 | 64 | 280 | 14.0 | 24.0 | 0.00 | 0.00 | 0.00 | 45 | |
| 20260905151604 | 66 | 270 | 16.0 | 26.0 | 0.00 | 0.00 | 0.00 | 48 | |
| 20260905141604 | 66 | 280 | 14.0 | 24.0 | 0.00 | 0.00 | 0.00 | 48 | |
| 20260905131805 | 66 | 270 | 16.0 | 29.0 | 0.00 | 0.00 | 0.00 | 52 | |
| 20260905121824 | 68 | 270 | 12.0 | 0.0 | 0.00 | 0.00 | 0.00 | 56 | |
| 20260905111606 | 63 | 270 | 18.0 | 29.0 | 0.00 | 0.00 | 0.00 | 63 | |
| 20260905102034 | 61 | 270 | 14.0 | 0.0 | 0.00 | 0.00 | 0.00 | 72 | |
| 20260905091704 | 55 | 270 | 14.0 | 0.0 | 0.00 | 0.00 | 0.00 | 87 | |
| 20260905081608 | 54 | 270 | 14.0 | 26.0 | 0.00 | 0.00 | 0.00 | 93 | |
| 20260905071907 | 52 | 270 | 14.0 | 0.0 | 0.00 | 0.00 | 0.00 | 99 | |
| 20260905061607 | 50 | 270 | 12.0 | 0.0 | 0.00 | 0.00 | 0.00 | 99 | |
| 20260905051606 | 50 | 270 | 14.0 | 0.0 | 0.00 | 0.00 | 0.00 | 93 | |
| 20260905042026 | 50 | 270 | 12.0 | 0.0 | 0.00 | 0.00 | 0.00 | 93 | |
| 20260905031607 | 52 | 270 | 12.0 | 0.0 | 0.00 | 0.00 | 0.00 | 87 |